Ellsworth, ME

5:52 PM EST on February 22, 2017 (GMT -0500)
Hancock County-Bar Harbor

Weather History for KBHB - January, 2014

Change the Weather History Date:

Monday, January 13, 2014

  Actual Average Record
Temperature  
Mean Temperature 36 °F -  
Max Temperature 42 °F 24 °F 48 °F (2006)
Min Temperature 30 °F 7 °F -10 °F (1971)
Degree Days  
Heating Degree Days 29    
Moisture  
Dew Point 31 °F    
Average Humidity 76    
Maximum Humidity 93    
Minimum Humidity 56    
Precipitation  
Precipitation 0.00 in - - ()
Sea Level Pressure  
Sea Level Pressure 29.98 in    
Wind  
Wind Speed 8 mph (SSW)    
Max Wind Speed 18 mph    
Max Gust Speed 24 mph    
Visibility 10 miles    
Events      
Averages and records for this station are not official NWS values.
T = Trace of Precipitation, MM = Missing Value Source: NWS Daily Summary

Daily Weather History Graph

Daily Weather History Graph

Search for Another Location

Airport or City:

Trip Planner

Search our weather history database for the weather conditions in past years. The results will help you decide how hot, cold, wet, or windy it might be!

Date:

Astronomy

Jan. 13, 2014 Rise Set
Actual Time 7:07 AM EST 4:17 PM EST
Civil Twilight 6:34 AM EST 4:49 PM EST
Nautical Twilight 5:58 AM EST 5:25 PM EST
Astronomical Twilight 5:23 AM EST 6:00 PM EST
Moon 2:30 PM EST (1/13) 4:52 AM EST (1/13)
Length of Visible Light 10h 15m
Length of Day
9h 10m
Waxing Gibbous, 95% of the Moon is Illuminated
Jan 13
Waxing Gibbous
Jan 15
Full
Jan 24
Last Quarter
Jan 30
New
Feb 6
First Quarter

Hourly Weather History & Observations

Time (EST) Temp. Windchill Dew Point Humidity Pressure Visibility Wind Dir Wind Speed Gust Speed Precip Events Conditions
12:15 AM 37.4 °F 30.8 °F 26.6 °F 65% 29.82 in 10.0 mi West 9.2 mph - N/A   Clear
12:35 AM 37.4 °F 30.8 °F 24.8 °F 60% 29.82 in 10.0 mi West 9.2 mph 16.1 mph N/A   Clear
12:55 AM 37.4 °F 30.8 °F 24.8 °F 60% 29.84 in 10.0 mi WNW 9.2 mph - N/A   Clear
1:15 AM 35.6 °F 30.7 °F 24.8 °F 65% 29.85 in 10.0 mi West 5.8 mph - N/A   Clear
1:35 AM 35.6 °F 29.9 °F 24.8 °F 65% 29.86 in 10.0 mi West 6.9 mph - N/A   Clear
1:55 AM 35.6 °F 30.7 °F 24.8 °F 65% 29.87 in 10.0 mi WNW 5.8 mph - N/A   Clear
2:15 AM 35.6 °F 31.7 °F 24.8 °F 65% 29.89 in 10.0 mi West 4.6 mph - N/A   Clear
2:35 AM 35.6 °F 29.2 °F 24.8 °F 65% 29.89 in 10.0 mi West 8.1 mph - N/A   Clear
2:55 AM 33.8 °F 30.8 °F 24.8 °F 70% 29.91 in 10.0 mi WSW 3.5 mph - N/A   Clear
3:15 AM 35.6 °F 32.8 °F 24.8 °F 65% 29.93 in 10.0 mi West 3.5 mph - N/A   Clear
3:35 AM 35.6 °F 31.7 °F 24.8 °F 65% 29.94 in 10.0 mi West 4.6 mph - N/A   Clear
3:55 AM 33.8 °F 29.6 °F 24.8 °F 70% 29.94 in 10.0 mi WSW 4.6 mph - N/A   Clear
4:15 AM 33.8 °F - 24.8 °F 70% 29.95 in 10.0 mi Calm Calm - N/A   Clear
4:35 AM 33.8 °F 29.6 °F 24.8 °F 70% 29.96 in 10.0 mi WSW 4.6 mph - N/A   Clear
4:55 AM 33.8 °F 29.6 °F 24.8 °F 70% 29.97 in 10.0 mi SSW 4.6 mph - N/A   Clear
5:15 AM 33.8 °F 30.8 °F 24.8 °F 70% 29.98 in 10.0 mi South 3.5 mph - N/A   Clear
5:35 AM 30.2 °F - 26.6 °F 86% 29.98 in 10.0 mi Calm Calm - N/A   Clear
5:55 AM 32.0 °F - 24.8 °F 75% 29.99 in 10.0 mi Calm Calm - N/A   Clear
6:15 AM 32.0 °F - 24.8 °F 75% 29.99 in 10.0 mi Calm Calm - N/A   Clear
6:35 AM 30.2 °F 26.7 °F 26.6 °F 86% 30.00 in 10.0 mi SSE 3.5 mph - N/A   Clear
6:55 AM 33.8 °F - 24.8 °F 70% 30.01 in 10.0 mi Calm Calm - N/A   Clear
7:15 AM 33.8 °F 30.8 °F 24.8 °F 70% 30.02 in 10.0 mi SW 3.5 mph - N/A   Clear
7:35 AM 33.8 °F 30.8 °F 24.8 °F 70% 30.03 in 10.0 mi SSW 3.5 mph - N/A   Clear
7:55 AM 33.8 °F 28.6 °F 26.6 °F 75% 30.04 in 10.0 mi SSW 5.8 mph - N/A   Clear
8:15 AM 33.8 °F 28.6 °F 26.6 °F 75% 30.04 in 10.0 mi SW 5.8 mph - N/A   Clear
8:35 AM 35.6 °F 30.7 °F 28.4 °F 75% 30.06 in 10.0 mi SSW 5.8 mph - N/A   Clear
8:55 AM 37.4 °F 31.4 °F 26.6 °F 65% 30.07 in 10.0 mi SSW 8.1 mph - N/A   Clear
9:15 AM 37.4 °F 32.8 °F 26.6 °F 65% 30.06 in 10.0 mi SW 5.8 mph - N/A   Clear
9:35 AM 39.2 °F 34.2 °F 24.8 °F 56% 30.06 in 10.0 mi SW 6.9 mph - N/A   Clear
9:55 AM 39.2 °F 32.0 °F 26.6 °F 61% 30.07 in 10.0 mi SSW 11.5 mph - N/A   Clear
10:15 AM 39.2 °F 32.5 °F 28.4 °F 65% 30.06 in 10.0 mi SSW 10.4 mph - N/A   Clear
10:35 AM 39.2 °F 32.5 °F 28.4 °F 65% 30.05 in 10.0 mi SSW 10.4 mph - N/A   Clear
10:55 AM 39.2 °F 32.5 °F 28.4 °F 65% 30.07 in 10.0 mi South 10.4 mph - N/A   Clear
11:15 AM 39.2 °F 33.0 °F 28.4 °F 65% 30.05 in 10.0 mi South 9.2 mph - N/A   Clear
11:35 AM 41.0 °F 35.2 °F 28.4 °F 61% 30.05 in 10.0 mi SSW 9.2 mph - N/A   Clear
11:55 AM 41.0 °F 35.2 °F 28.4 °F 61% 30.03 in 10.0 mi South 9.2 mph - N/A   Clear
12:15 PM 41.0 °F 34.3 °F 28.4 °F 61% 30.02 in 10.0 mi South 11.5 mph - N/A   Clear
12:35 PM 42.8 °F 36.2 °F 28.4 °F 57% 30.01 in 10.0 mi South 12.7 mph - N/A   Clear
12:55 PM 42.8 °F 34.5 °F 28.4 °F 57% 30.02 in 10.0 mi South 18.4 mph 24.2 mph N/A   Clear
1:15 PM 41.0 °F 33.5 °F 30.2 °F 65% 30.02 in 10.0 mi South 13.8 mph 17.3 mph N/A   Clear
1:35 PM 41.0 °F 33.1 °F 33.8 °F 76% 30.02 in 10.0 mi SSW 15.0 mph 19.6 mph N/A   Clear
1:55 PM 41.0 °F 33.5 °F 33.8 °F 76% 30.02 in 10.0 mi SSW 13.8 mph 19.6 mph N/A   Clear
2:15 PM 39.2 °F 30.8 °F 33.8 °F 81% 30.03 in 10.0 mi SSW 15.0 mph 21.9 mph N/A   Clear
2:35 PM 39.2 °F 30.8 °F 30.2 °F 70% 30.02 in 10.0 mi South 15.0 mph 21.9 mph N/A   Clear
2:55 PM 39.2 °F 31.6 °F 32.0 °F 75% 30.03 in 10.0 mi SSW 12.7 mph - N/A   Clear
3:15 PM 39.2 °F 30.8 °F 33.8 °F 81% 30.02 in 10.0 mi South 15.0 mph - N/A   Clear
3:35 PM 37.4 °F 29.3 °F 33.8 °F 87% 30.01 in 10.0 mi SSW 12.7 mph - N/A   Clear
3:55 PM 37.4 °F 31.4 °F 33.8 °F 87% 30.00 in 10.0 mi South 8.1 mph - N/A   Clear
4:15 PM 37.4 °F 33.8 °F 33.8 °F 87% 29.99 in 10.0 mi SE 4.6 mph - N/A   Clear
4:35 PM 35.6 °F - 32.0 °F 87% 30.00 in 10.0 mi Calm Calm - N/A   Clear
4:55 PM 35.6 °F 31.7 °F 33.8 °F 93% 30.00 in 10.0 mi South 4.6 mph - N/A   Clear
5:15 PM 35.6 °F 28.0 °F 33.8 °F 93% 30.00 in 10.0 mi SSW 10.4 mph - N/A   Clear
5:35 PM 37.4 °F 30.3 °F 35.6 °F 93% 30.01 in 10.0 mi SSW 10.4 mph - N/A   Clear
5:55 PM 37.4 °F 30.3 °F 35.6 °F 93% 30.01 in 10.0 mi SSW 10.4 mph - N/A   Clear
6:15 PM 37.4 °F 28.9 °F 35.6 °F 93% 30.00 in 10.0 mi South 13.8 mph - N/A   Clear
6:35 PM 37.4 °F 29.3 °F 35.6 °F 93% 30.00 in 10.0 mi SSW 12.7 mph - N/A   Clear
6:55 PM 37.4 °F 30.3 °F 35.6 °F 93% 30.00 in 10.0 mi SSW 10.4 mph - N/A   Clear
7:15 PM 39.2 °F 32.5 °F 35.6 °F 87% 30.00 in 10.0 mi South 10.4 mph - N/A   Clear
7:35 PM 39.2 °F 32.5 °F 37.4 °F 93% 30.00 in 10.0 mi SSW 10.4 mph - N/A   Clear
7:55 PM 39.2 °F 34.2 °F 37.4 °F 93% 29.99 in 10.0 mi SSW 6.9 mph - N/A   Clear
8:15 PM 39.2 °F 32.5 °F 37.4 °F 93% 29.98 in 10.0 mi SSW 10.4 mph - N/A   Clear
8:35 PM 41.0 °F 34.3 °F 37.4 °F 87% 29.97 in 10.0 mi SSW 11.5 mph - N/A   Clear
8:55 PM 41.0 °F 32.8 °F 37.4 °F 87% 29.97 in 10.0 mi SSW 16.1 mph - N/A   Clear
9:15 PM 41.0 °F 32.5 °F 37.4 °F 87% 29.97 in 10.0 mi SSW 17.3 mph 21.9 mph N/A   Clear
9:35 PM 42.8 °F 35.1 °F 37.4 °F 81% 29.96 in 10.0 mi South 16.1 mph - N/A   Clear
9:55 PM 42.8 °F 36.6 °F 39.2 °F 87% 29.95 in 10.0 mi SSW 11.5 mph - N/A   Clear
10:15 PM 42.8 °F 35.8 °F 39.2 °F 87% 29.94 in 10.0 mi SSW 13.8 mph 18.4 mph N/A   Clear
10:35 PM 42.8 °F 36.2 °F 39.2 °F 87% 29.94 in 10.0 mi SSW 12.7 mph 19.6 mph N/A   Clear
10:55 PM 42.8 °F 38.6 °F 39.2 °F 87% 29.94 in 10.0 mi SSW 6.9 mph - N/A   Clear
11:15 PM 42.8 °F 38.6 °F 41.0 °F 93% 29.93 in 10.0 mi SSW 6.9 mph - N/A   Scattered Clouds
11:35 PM 42.8 °F 38.0 °F 41.0 °F 93% 29.94 in 10.0 mi SSW 8.1 mph - N/A   Overcast
11:55 PM 42.8 °F 37.0 °F 41.0 °F 93% 29.93 in 9.0 mi South 10.4 mph - N/A   Mostly Cloudy